Satellite: ORSTED
Catalog number: 25635
Epoch time:      103013.03084904
Element set:     805 
Inclination:       96.4478 deg
RA of node:         8.0204 deg
Eccentricity:    0.0146837
Arg of perigee:    84.8805 deg
Mean anomaly:     276.9130 deg
Mean motion:   14.44764602 rev/day
Decay rate:    6.3399E-006 rev/day^2
Epoch rev:           20466
Checksum:              310

Satellite: SUNSAT
Catalog number: 25636
Epoch time:      103012.96461717
Element set:     803 
Inclination:       96.4497 deg
RA of node:         6.7017 deg
Eccentricity:    0.0150664
Arg of perigee:    91.2256 deg
Mean anomaly:     270.6205 deg
Mean motion:   14.42915594 rev/day
Decay rate:    2.9899E-006 rev/day^2
Epoch rev:           20453
Checksum:              317

Satellite: UOSAT 12
Catalog number: 25693
Epoch time:      103013.37835681
Element set:     608 
Inclination:       64.5585 deg
RA of node:       121.5509 deg
Eccentricity:    0.0017108
Arg of perigee:   317.3179 deg
Mean anomaly:      42.6565 deg
Mean motion:   14.76345039 rev/day
Decay rate:    9.0699E-006 rev/day^2
Epoch rev:           20091
Checksum:              323

Satellite: FENGYUN 1C
Catalog number: 25730
Epoch time:      103013.22354261
Element set:     741 
Inclination:       98.6368 deg
RA of node:        38.9866 deg
Eccentricity:    0.0015313
Arg of perigee:   105.2660 deg
Mean anomaly:     255.0206 deg
Mean motion:   14.11729372 rev/day
Decay rate:   -5.0000E-008 rev/day^2
Epoch rev:           18950
Checksum:              277

Satellite: ASTRA 1H
Catalog number: 25785
Epoch time:      102364.00000000
Element set:     367 
Inclination:        0.0122 deg
RA of node:       319.8851 deg
Eccentricity:    0.0002995
Arg of perigee:    65.1991 deg
Mean anomaly:      92.3410 deg
Mean motion:    1.00273184 rev/day
Decay rate:    1.2799E-006 rev/day^2
Epoch rev:            1299
Checksum:              264

Satellite: TERRA
Catalog number: 25994
Epoch time:      103013.26120740
Element set:     598 
Inclination:       98.2043 deg
RA of node:        90.0343 deg
Eccentricity:    0.0001090
Arg of perigee:    72.9130 deg
Mean anomaly:     287.2201 deg
Mean motion:   14.57086122 rev/day
Decay rate:    6.7199E-006 rev/day^2
Epoch rev:           16338
Checksum:              283

Satellite: JAWSAT
Catalog number: 26061
Epoch time:      103012.90603787
Element set:     739 
Inclination:      100.2116 deg
RA of node:        63.1611 deg
Eccentricity:    0.0035327
Arg of perigee:    23.9580 deg
Mean anomaly:     336.3238 deg
Mean motion:   14.37776531 rev/day
Decay rate:    5.2199E-006 rev/day^2
Epoch rev:           15526
Checksum:              287

Satellite: OPAL
Catalog number: 26063
Epoch time:      103012.68334542
Element set:     696 
Inclination:      100.2175 deg
RA of node:        60.5609 deg
Eccentricity:    0.0037451
Arg of perigee:    30.6609 deg
Mean anomaly:     329.6747 deg
Mean motion:   14.35463730 rev/day
Decay rate:    1.4400E-006 rev/day^2
Epoch rev:           15509
Checksum:              282

Satellite: ASUSAT
Catalog number: 26065
Epoch time:      103013.19851309
Element set:     707 
Inclination:      100.2165 deg
RA of node:        61.3106 deg
Eccentricity:    0.0037651
Arg of perigee:    30.9373 deg
Mean anomaly:     329.4014 deg
Mean motion:   14.35489913 rev/day
Decay rate:    1.6200E-006 rev/day^2
Epoch rev:           15516
Checksum:              266

Satellite: GOES 11
Catalog number: 26352
Epoch time:      103012.52750551
Element set:     971 
Inclination:        0.0555 deg
RA of node:       113.6172 deg
Eccentricity:    0.0004459
Arg of perigee:   163.0041 deg
Mean anomaly:     272.5887 deg
Mean motion:    1.00261359 rev/day
Decay rate:   -2.2000E-007 rev/day^2
Epoch rev:             986
Checksum:              363

Satellite: EUTELSAT W4
Catalog number: 26369
Epoch time:      102365.18880209
Element set:     334 
Inclination:        0.0264 deg
RA of node:         6.8932 deg
Eccentricity:    0.0003444
Arg of perigee:   271.2514 deg
Mean anomaly:     285.3827 deg
Mean motion:    1.00274671 rev/day
Decay rate:    1.6100E-006 rev/day^2
Epoch rev:             955
Checksum:              274

Satellite: FENGYUN 2B
Catalog number: 26382
Epoch time:      103012.98037590
Element set:     767 
Inclination:        0.6546 deg
RA of node:       287.3101 deg
Eccentricity:    0.0000556
Arg of perigee:   168.3299 deg
Mean anomaly:     113.8070 deg
Mean motion:    1.00266321 rev/day
Decay rate:   -3.0900E-006 rev/day^2
Epoch rev:             934
Checksum:              274

Satellite: EUTELSAT W1
Catalog number: 26487
Epoch time:      103013.00216436
Element set:     341 
Inclination:        0.0486 deg
RA of node:       102.7976 deg
Eccentricity:    0.0003860
Arg of perigee:   182.0647 deg
Mean anomaly:     197.9575 deg
Mean motion:    1.00274920 rev/day
Decay rate:    8.7000E-007 rev/day^2
Epoch rev:             865
Checksum:              278

Satellite: ASTRA 2B
Catalog number: 26494
Epoch time:      102364.00000000
Element set:     250 
Inclination:        0.0178 deg
RA of node:       354.5658 deg
Eccentricity:    0.0005000
Arg of perigee:   302.8402 deg
Mean anomaly:     189.0339 deg
Mean motion:    1.00276704 rev/day
Decay rate:    1.5800E-006 rev/day^2
Epoch rev:             841
Checksum:              227

Satellite: NOAA 16
Catalog number: 26536
Epoch time:      103012.80232638
Element set:     162 
Inclination:       98.8975 deg
RA of node:       321.3683 deg
Eccentricity:    0.0011417
Arg of perigee:    51.6361 deg
Mean anomaly:     308.5824 deg
Mean motion:   14.11880842 rev/day
Decay rate:    1.1800E-006 rev/day^2
Epoch rev:           11896
Checksum:              300

Satellite: SAUDISAT 1A
Catalog number: 26545
Epoch time:      103013.03095324
Element set:     397 
Inclination:       64.5574 deg
RA of node:       144.2130 deg
Eccentricity:    0.0054407
Arg of perigee:   244.4982 deg
Mean anomaly:     115.0534 deg
Mean motion:   14.78867843 rev/day
Decay rate:    2.3919E-005 rev/day^2
Epoch rev:           12381
Checksum:              301

Satellite: UNISAT
Catalog number: 26547
Epoch time:      103013.03545511
Element set:     416 
Inclination:       64.5566 deg
RA of node:       146.5696 deg
Eccentricity:    0.0061490
Arg of perigee:   247.0396 deg
Mean anomaly:     112.4251 deg
Mean motion:   14.79559707 rev/day
Decay rate:    3.6910E-005 rev/day^2
Epoch rev:           12378
Checksum:              416

Satellite: TIUNGSAT 1
Catalog number: 26548
Epoch time:      103012.70447801
Element set:     402 
Inclination:       64.5570 deg
RA of node:       138.5123 deg
Eccentricity:    0.0047756
Arg of perigee:   243.3429 deg
Mean anomaly:     116.2782 deg
Mean motion:   14.81123825 rev/day
Decay rate:    2.8979E-005 rev/day^2
Epoch rev:           12391
Checksum:              302

Satellite: SAUDISAT 1B
Catalog number: 26549
Epoch time:      103013.51451711
Element set:     665 
Inclination:       64.5493 deg
RA of node:       146.6529 deg
Eccentricity:    0.0058867
Arg of perigee:   244.8093 deg
Mean anomaly:     114.6892 deg
Mean motion:   14.77808713 rev/day
Decay rate:    1.9959E-005 rev/day^2
Epoch rev:           12381
Checksum:              440

Satellite: AMSAT OSCAR 40
Catalog number: 26609
Epoch time:      103010.44625714
Element set:     303 
Inclination:        7.9502 deg
RA of node:        71.3649 deg
Eccentricity:    0.7935426
Arg of perigee:   131.6935 deg
Mean anomaly:     329.0160 deg
Mean motion:    1.25596950 rev/day
Decay rate:   -3.3000E-007 rev/day^2
Epoch rev:            1009
Checksum:              278

Satellite: GOES 12
Catalog number: 26871
Epoch time:      103013.33691153
Element set:     768 
Inclination:        0.4624 deg
RA of node:        97.7787 deg
Eccentricity:    0.0000963
Arg of perigee:    46.8413 deg
Mean anomaly:     343.7787 deg
Mean motion:    1.00278615 rev/day
Decay rate:   -6.8999E-007 rev/day^2
Epoch rev:             547
Checksum:              450

Satellite: STARSHINE 3
Catalog number: 26929
Epoch time:      103013.61925552
Element set:     668 
Inclination:       67.0218 deg
RA of node:        84.0972 deg
Eccentricity:    0.0008103
Arg of perigee:   330.9066 deg
Mean anomaly:      29.1622 deg
Mean motion:   16.10755675 rev/day
Decay rate:    1.0481E-002 rev/day^2
Epoch rev:            7311
Checksum:              289

Satellite: PCSAT
Catalog number: 26931
Epoch time:      103012.92320602
Element set:     375 
Inclination:       67.0484 deg
RA of node:       349.9536 deg
Eccentricity:    0.0005306
Arg of perigee:   258.4360 deg
Mean anomaly:     101.6145 deg
Mean motion:   14.29091624 rev/day
Decay rate:    2.5100E-006 rev/day^2
Epoch rev:            6711
Checksum:              270

Satellite: SAPPHIRE
Catalog number: 26932
Epoch time:      103012.97587757
Element set:     375 
Inclination:       67.0550 deg
RA of node:       349.5325 deg
Eccentricity:    0.0006367
Arg of perigee:   238.4140 deg
Mean anomaly:     121.6341 deg
Mean motion:   14.29277215 rev/day
Decay rate:    1.3400E-006 rev/day^2
Epoch rev:            6714
Checksum:              295

Satellite: ENVISAT
Catalog number: 27386
Epoch time:      103013.42729859
Element set:     840 
Inclination:       98.5495 deg
RA of node:        82.4992 deg
Eccentricity:    0.0000925
Arg of perigee:    99.2756 deg
Mean anomaly:     260.8530 deg
Mean motion:   14.32254164 rev/day
Decay rate:    2.0800E-006 rev/day^2
Epoch rev:            4557
Checksum:              322

